[[{"header":{"parameterUnit":"m.s-1","parameterCategory":1,"la1":30.2991,"la2":30.254,"lo1":-89.0895,"lo2":-89.0444,"dy":0.0017,"dx":0.0017,"nx":28,"ny":28,"refTime":"2025-05-29T03:00:00:Z","depth":0,"parameterNumber":2,"parameterNumberName":"U-component_of_WINDS"},"data":[0,0,0,0,0,0,0,0,0,0,0,0,0,0,0,0,0,0,0,0,0,0,0,0,0,0,0,0,0,0,0,0,0,0,0,0,0,0,0,0,0,0,0,0,0,0,0,0,0,0,0,0,0,0,0,0,0,0,4.6801,4.6801,0,4.6775,4.6774,4.6774,4.6735,4.6734,4.6734,4.6733,4.6707,4.6707,4.6707,0,0,0,0,0,0,0,0,0,0,0,0,0,4.6817,4.6817,4.6801,4.6801,4.68,4.6775,4.6774,4.6774,4.6735,4.6734,4.6733,4.6733,4.6707,4.6707,4.6707,0,0,0,0,0,0,0,0,0,0,0,0,0,4.6802,4.6817,4.6801,4.6778,4.6776,4.6775,4.6774,4.6774,4.6735,4.6734,4.6733,4.6732,4.6707,4.6707,4.6707,4.6727,0,0,4.6707,4.6707,0,0,0,0,0,0,0,0,4.6803,4.6802,4.6782,4.6779,4.6777,4.6757,4.677,4.6758,4.6736,4.6751,4.6733,4.6732,4.6725,4.6723,4.672,4.6726,4.6725,4.6707,4.6707,4.6707,4.6707,0,0,0,0,0,0,0,4.6804,4.6803,4.6791,4.6781,4.6778,4.6769,4.6765,4.6768,4.6744,4.6749,4.6746,4.6744,4.6723,4.6721,4.6719,4.6724,4.6707,4.6707,4.6707,4.6707,4.6743,4.6744,0,0,0,0,0,0,4.6809,4.6804,4.6791,4.679,4.6788,4.6769,4.6766,4.6764,4.6744,4.6739,4.6745,4.6742,4.6721,4.672,4.6718,4.6739,4.6707,4.6707,4.6706,4.6742,4.6743,4.6744,0,0,0,0,0,0,4.6809,4.6808,4.6792,4.6796,4.6793,4.677,4.6769,4.6764,4.6762,4.674,4.6736,4.6746,4.672,4.6719,4.6725,4.6738,4.6707,4.6706,4.6741,4.6742,4.6744,4.6782,0,0,0,0,0,0,4.681,4.6809,4.6816,4.6797,4.6793,4.68,4.677,4.6765,4.6762,4.6758,4.6741,4.6737,4.6719,4.6725,4.6725,4.6737,4.6706,4.674,4.6742,4.6743,4.678,4.6785,4.6789,0,0,0,0,0,4.6811,4.6829,4.6817,4.6816,4.6802,4.68,4.6799,4.6778,4.6763,4.677,4.6756,4.6737,4.6737,4.6726,4.6725,4.6738,4.6739,4.6741,4.6743,4.6777,4.6784,4.6789,0,0,0,0,0,0,4.6851,4.6826,4.6812,4.6825,4.6815,4.6794,4.6802,4.6786,4.678,4.6777,4.6752,4.6748,4.6757,4.6748,4.6737,4.6755,4.6735,4.6737,4.6761,4.6767,4.6771,4.6773,4.6706,0,0,0,0,0,4.6862,4.6862,4.684,4.6853,4.6848,4.6826,4.6825,4.6809,4.6799,4.6794,4.6781,4.6771,4.6768,4.6767,4.6763,4.6778,4.6773,4.6786,4.6791,4.6795,4.6797,4.6803,4.6808,4.6752,4.6752,4.6752,0,0,4.6883,4.6869,4.6871,4.686,4.6851,4.6852,4.6823,4.6826,4.6826,4.6795,4.6799,4.6789,4.6776,4.6786,4.679,4.6779,4.6811,4.6798,4.6801,4.6801,4.6805,4.6811,4.6816,4.6753,4.6753,4.6753,0,0,4.6923,4.6912,4.6921,4.6912,4.6898,4.6883,4.6885,4.6866,4.6858,4.6862,4.6838,4.6838,4.6834,4.6825,4.6821,4.6854,4.6837,4.6854,4.6879,4.6885,4.6889,4.6893,4.6904,4.6908,4.6856,4.6856,4.6857,0,4.6951,4.6951,4.6928,4.6931,4.6927,4.6898,4.6906,4.6898,4.6884,4.6882,4.6869,4.6863,4.6852,4.6859,4.6867,4.6865,4.6865,4.6856,4.689,4.6894,4.6897,4.6907,4.6911,4.6859,4.6858,4.6858,4.6858,0,4.6987,4.6987,4.6996,4.6981,4.6978,4.6984,4.6961,4.696,4.6945,4.6931,4.6934,4.692,4.6913,4.6913,4.6899,4.6917,4.6911,4.6895,4.6873,4.6905,4.6914,4.6918,4.6862,4.6861,4.686,4.686,0,0,4.7052,4.7024,4.7027,4.702,4.7001,4.7001,4.7004,4.6996,4.6995,4.6986,4.6988,4.6985,4.6969,4.6964,4.6948,4.6953,4.6979,4.6936,4.6935,4.6943,4.6997,4.7008,4.7013,4.6967,4.6967,4.6968,4.6997,0,4.7087,4.7092,4.7071,4.7081,4.708,4.7052,4.7055,4.7044,4.703,4.7027,4.7013,4.701,4.699,4.6987,4.699,4.6975,4.6989,4.6972,4.6968,4.6968,4.6971,4.7018,4.7031,4.7059,4.7001,4.7001,4.7002,0,4.713,4.7121,4.7132,4.711,4.7109,4.7113,4.7102,4.71,4.7086,4.7076,4.7069,4.7049,4.7051,4.7031,4.7032,4.7021,4.7018,4.701,4.701,4.7009,4.6986,4.7017,4.7068,4.7072,4.7007,4.7007,4.7006,0,4.7176,4.7167,4.7171,4.7166,4.7142,4.7144,4.7134,4.7119,4.7115,4.7106,4.7102,4.7094,4.7089,4.7083,4.7062,4.7049,4.7065,4.7043,4.7056,4.7056,4.7061,4.706,4.7111,4.706,4.7059,4.7059,4.7059,0,4.7217,4.7225,4.7191,4.7194,4.7201,4.7175,4.7182,4.7169,4.7156,4.7155,4.713,4.713,4.7102,4.7098,4.7082,4.7084,4.7083,4.7074,4.707,4.7076,4.7077,4.7073,4.7071,4.706,4.706,4.706,4.706,0,4.727,4.7248,4.7251,4.7227,4.7221,4.7227,4.7206,4.7207,4.7191,4.7191,4.7189,4.7164,4.7158,4.7136,4.7126,4.7114,4.7122,4.7114,4.7127,4.7124,4.7137,4.7136,4.7187,4.7192,4.7138,4.7138,4.7139,0,4.7298,4.7303,4.7279,4.7276,4.7267,4.7263,4.7258,4.7232,4.7228,4.7211,4.7214,4.7206,4.7198,4.719,4.7171,4.7162,4.7153,4.7171,4.7151,4.7157,4.7152,4.7152,4.7151,4.7176,4.7176,4.7177,4.7177,0,4.735,4.7338,4.7332,4.7321,4.7316,4.7306,4.7295,4.7294,4.7265,4.7262,4.7255,4.7249,4.7237,4.7229,4.7216,4.7205,4.7186,4.7183,4.7186,4.7192,4.7199,4.7194,4.7138,4.7183,4.7182,4.7182,4.7181,4.7181,4.7391,4.7393,4.7375,4.7369,4.7357,4.7347,4.7346,4.7329,4.7323,4.7311,4.7296,4.729,4.7274,4.7255,4.7245,4.724,4.723,4.7234,4.7235,4.7236,4.7238,4.72,4.7238,4.7238,4.7238,4.7238,4.7238,0,4.7441,4.7428,4.7421,4.7406,4.74,4.7381,4.7368,4.7364,4.7359,4.7345,4.7338,4.7329,4.732,4.7299,4.7289,4.7289,4.7279,4.7286,4.7286,4.7284,4.7249,4.7247,4.7294,4.7294,4.7294,4.7294,4.7294,4.7294,4.7466,4.7468,4.7454,4.7449,4.7435,4.743,4.7423,4.7413,4.7401,4.7392,4.7384,4.7371,4.7354,4.7341,4.7332,4.7326,4.7322,4.7332,4.7324,4.7292,4.7286,4.7281,4.728,4.7332,4.7332,4.7358,4.7359,4.7359]},{"header":{"parameterUnit":"m.s-1","parameterCategory":1,"la1":30.2991,"la2":30.254,"lo1":-89.0895,"lo2":-89.0444,"dy":0.0017,"dx":0.0017,"nx":28,"ny":28,"refTime":"2025-05-29T03:00:00:Z","depth":0,"parameterNumber":3,"parameterNumberName":"V-component_of_WINDS"},"data":[0,0,0,0,0,0,0,0,0,0,0,0,0,0,0,0,0,0,0,0,0,0,0,0,0,0,0,0,0,0,0,0,0,0,0,0,0,0,0,0,0,0,0,0,0,0,0,0,0,0,0,0,0,0,0,0,0,0,-1.2932,-1.2932,0,-1.2972,-1.2973,-1.2973,-1.2954,-1.2953,-1.2952,-1.2951,-1.299,-1.2992,-1.2994,0,0,0,0,0,0,0,0,0,0,0,0,0,-1.2835,-1.2837,-1.2932,-1.2932,-1.2933,-1.2972,-1.2973,-1.2973,-1.2954,-1.2953,-1.2951,-1.295,-1.299,-1.2992,-1.2994,0,0,0,0,0,0,0,0,0,0,0,0,0,-1.2877,-1.2838,-1.2931,-1.2928,-1.2928,-1.2972,-1.2973,-1.2974,-1.2954,-1.2953,-1.2951,-1.2949,-1.2989,-1.2992,-1.2995,-1.3045,0,0,-1.3004,-1.3005,0,0,0,0,0,0,0,0,-1.2874,-1.288,-1.2928,-1.2928,-1.2928,-1.2956,-1.2953,-1.2997,-1.2954,-1.2944,-1.2951,-1.2949,-1.298,-1.2984,-1.2995,-1.3046,-1.3048,-1.3004,-1.3006,-1.3007,-1.3008,0,0,0,0,0,0,0,-1.2871,-1.2878,-1.2948,-1.2928,-1.2929,-1.2923,-1.2928,-1.2962,-1.297,-1.2945,-1.2943,-1.2949,-1.298,-1.2992,-1.2995,-1.3049,-1.3004,-1.3007,-1.3009,-1.301,-1.3145,-1.3147,0,0,0,0,0,0,-1.2869,-1.2876,-1.2946,-1.2949,-1.2897,-1.2926,-1.2931,-1.2949,-1.297,-1.2972,-1.295,-1.2948,-1.2987,-1.2992,-1.2997,-1.3058,-1.3007,-1.301,-1.3012,-1.3143,-1.3145,-1.3147,0,0,0,0,0,0,-1.2867,-1.2875,-1.2945,-1.2912,-1.2921,-1.293,-1.295,-1.295,-1.2962,-1.2974,-1.2975,-1.2961,-1.2986,-1.2993,-1.3033,-1.3059,-1.3012,-1.3014,-1.3141,-1.3144,-1.3146,-1.318,0,0,0,0,0,0,-1.2864,-1.2875,-1.2894,-1.2913,-1.2922,-1.2981,-1.2951,-1.2952,-1.2968,-1.2965,-1.2984,-1.2986,-1.2986,-1.3029,-1.3036,-1.3063,-1.3017,-1.3139,-1.3142,-1.3145,-1.3177,-1.3184,-1.319,0,0,0,0,0,-1.2861,-1.2901,-1.2895,-1.2904,-1.2947,-1.2983,-1.2988,-1.2988,-1.297,-1.299,-1.2997,-1.2985,-1.3055,-1.3033,-1.3041,-1.3069,-1.3137,-1.3141,-1.3145,-1.3174,-1.3183,-1.319,0,0,0,0,0,0,-1.2885,-1.2904,-1.2897,-1.2945,-1.2963,-1.2979,-1.3004,-1.2996,-1.3019,-1.3015,-1.3013,-1.3017,-1.306,-1.3068,-1.3044,-1.3119,-1.3093,-1.3099,-1.3113,-1.3121,-1.3127,-1.3125,-1.3019,0,0,0,0,0,-1.2896,-1.2924,-1.2938,-1.2979,-1.2989,-1.2995,-1.301,-1.3009,-1.3026,-1.3033,-1.3044,-1.3061,-1.3087,-1.3104,-1.3128,-1.3177,-1.3182,-1.32,-1.3207,-1.3212,-1.3218,-1.3246,-1.3255,-1.316,-1.316,-1.316,0,0,-1.2919,-1.2932,-1.295,-1.2985,-1.2998,-1.3027,-1.3001,-1.3032,-1.3054,-1.3038,-1.3078,-1.3086,-1.3105,-1.3151,-1.3171,-1.3159,-1.3244,-1.3217,-1.3221,-1.3224,-1.3251,-1.326,-1.3268,-1.3163,-1.3162,-1.3162,0,0,-1.2976,-1.2988,-1.3025,-1.3039,-1.306,-1.3064,-1.3072,-1.3091,-1.3096,-1.3136,-1.3125,-1.3149,-1.3194,-1.3208,-1.3221,-1.3284,-1.3275,-1.3292,-1.3326,-1.3353,-1.3361,-1.3368,-1.3392,-1.34,-1.3297,-1.3297,-1.3297,0,-1.3001,-1.3045,-1.3044,-1.3077,-1.3093,-1.308,-1.3117,-1.313,-1.3158,-1.3169,-1.3154,-1.3211,-1.3222,-1.3272,-1.3288,-1.3298,-1.3308,-1.3291,-1.336,-1.3367,-1.3373,-1.3396,-1.3405,-1.3299,-1.3299,-1.3299,-1.3299,0,-1.3077,-1.3107,-1.3134,-1.3163,-1.3181,-1.3216,-1.3219,-1.3238,-1.3234,-1.324,-1.3281,-1.3295,-1.3322,-1.3333,-1.333,-1.3383,-1.3375,-1.336,-1.3335,-1.3384,-1.3406,-1.3414,-1.3302,-1.3302,-1.3301,-1.33,0,0,-1.3151,-1.3179,-1.3189,-1.3202,-1.3224,-1.3248,-1.3281,-1.3309,-1.3326,-1.3345,-1.3374,-1.3412,-1.3399,-1.3414,-1.3411,-1.3435,-1.3486,-1.3418,-1.3418,-1.3432,-1.3548,-1.356,-1.357,-1.3479,-1.3481,-1.3482,-1.3547,0,-1.3212,-1.3273,-1.3273,-1.3329,-1.3358,-1.3346,-1.3375,-1.3392,-1.3398,-1.3423,-1.3428,-1.3456,-1.3436,-1.3445,-1.3468,-1.3475,-1.351,-1.347,-1.3507,-1.3508,-1.3505,-1.3581,-1.3595,-1.3655,-1.3555,-1.3556,-1.3557,0,-1.3291,-1.3314,-1.3374,-1.3393,-1.3405,-1.3432,-1.3458,-1.3481,-1.3499,-1.3502,-1.3519,-1.3513,-1.3547,-1.3519,-1.3567,-1.354,-1.3555,-1.3561,-1.3563,-1.3568,-1.3537,-1.359,-1.3674,-1.3684,-1.357,-1.3569,-1.3568,0,-1.3342,-1.3388,-1.343,-1.3441,-1.3464,-1.3483,-1.3493,-1.351,-1.3527,-1.3549,-1.356,-1.3585,-1.36,-1.3619,-1.362,-1.3599,-1.3669,-1.3641,-1.3673,-1.3673,-1.369,-1.3689,-1.3779,-1.3696,-1.3695,-1.3695,-1.3695,0,-1.3411,-1.3449,-1.3453,-1.348,-1.3521,-1.352,-1.3561,-1.3569,-1.3584,-1.3611,-1.3601,-1.3626,-1.3625,-1.3651,-1.3651,-1.3692,-1.3698,-1.3701,-1.3701,-1.3703,-1.3703,-1.3714,-1.3711,-1.3698,-1.3697,-1.3697,-1.3696,0,-1.3477,-1.3481,-1.3527,-1.3544,-1.3549,-1.358,-1.3594,-1.3619,-1.3623,-1.3658,-1.3666,-1.3673,-1.3703,-1.3705,-1.3739,-1.374,-1.3789,-1.3784,-1.3784,-1.3784,-1.3816,-1.3814,-1.3918,-1.3933,-1.3838,-1.3839,-1.384,0,-1.3522,-1.3551,-1.3571,-1.359,-1.3601,-1.363,-1.3647,-1.3647,-1.3665,-1.3689,-1.3711,-1.3739,-1.3763,-1.3811,-1.3819,-1.3845,-1.3842,-1.3876,-1.3846,-1.3847,-1.3844,-1.3844,-1.3847,-1.3883,-1.3884,-1.3885,-1.3885,0,-1.3602,-1.3603,-1.3629,-1.3656,-1.3678,-1.3699,-1.3719,-1.3733,-1.3735,-1.3756,-1.3787,-1.3806,-1.3841,-1.387,-1.3896,-1.3905,-1.3896,-1.3895,-1.3904,-1.3908,-1.3907,-1.391,-1.3803,-1.3893,-1.3892,-1.3892,-1.3891,-1.3891,-1.366,-1.3686,-1.3705,-1.3735,-1.3749,-1.3768,-1.3793,-1.38,-1.3826,-1.3856,-1.3853,-1.3888,-1.3905,-1.3939,-1.3951,-1.3977,-1.3966,-1.3978,-1.3982,-1.3986,-1.399,-1.3901,-1.3982,-1.3981,-1.3981,-1.3981,-1.3981,0,-1.3742,-1.3754,-1.3781,-1.3809,-1.3833,-1.3821,-1.3842,-1.3863,-1.3894,-1.3911,-1.3934,-1.397,-1.3998,-1.4008,-1.4036,-1.4055,-1.4052,-1.4063,-1.4062,-1.4065,-1.3998,-1.3988,-1.4065,-1.4065,-1.4065,-1.4065,-1.4065,-1.4065,-1.3788,-1.3831,-1.3834,-1.3884,-1.3895,-1.393,-1.3943,-1.396,-1.3974,-1.4015,-1.4039,-1.4045,-1.4059,-1.4088,-1.4113,-1.4115,-1.4126,-1.414,-1.414,-1.4078,-1.407,-1.4062,-1.4053,-1.4142,-1.4142,-1.4205,-1.4206,-1.4206]}]]